Regional Weather Roundup
Issued by NWS Northern Indiana

Home | Current Version | Previous Version | Graphics & Text | Print | Product List | Glossary On
Versions: 1 2 3 4 5 6 7 8 9 10 11 12 13 14 15 16 17 18 19 20 21 22 23 24 25 26 27 28 29 30 31 32 33 34 35 36 37 38 39 40 41 42 43 44 45 46 47 48 49 50
000
ASUS43 KIWX 201910
RWRIWX

KIWX WEATHER ROUNDUP
NATIONAL WEATHER SERVICE NORTHERN INDIANA
300 PM EDT MON OCT 20 2014

NOTE: "FAIR" INDICATES FEW OR NO CLOUDS BELOW 12,000 FEET WITH NO
SIGNIFICANT WEATHER AND/OR OBSTRUCTIONS TO VISIBILITY.

* THESE STATIONS ARE NOT UNDER NWS QUALITY CONTROL. THEY ALSO MAY NOT
  REPORT WEATHER SUCH AS PRECIPITATION OR FOG.

INZ001>027-202000-
NORTHERN INDIANA

CITY           SKY/WX    TMP DP  RH WIND       PRES   REMARKS
GARY*          MOSUNNY   63  48  59 N8        29.84F
VALPARAISO     SUNNY     61  47  59 NW10      29.83S
MICHIGAN CITY* PTSUNNY   55  46  71 W8        29.84S
LAPORTE*       SUNNY     60  50  70 NW8       29.83S
KNOX*          SUNNY     64  47  54 NW7       29.81F
SOUTH BEND     MOSUNNY   60  48  64 NW13      29.83S
ELKHART*       MOSUNNY   61  48  63 NW7       29.81F
GOSHEN         MOSUNNY   60  49  66 NW10      29.80F
MONTICELLO*    MOSUNNY   66  49  53 NW9G16    29.81S
LOGANSPORT*    PTSUNNY   64  48  55 W17       29.82S
ROCHESTER*     MOSUNNY   66  50  55 NW12G18   29.81S
WARSAW*        CLOUDY    61  50  67 W10       29.81S
ANGOLA*        CLOUDY    55  46  71 NW6       29.80S
FORT WAYNE     CLOUDY    56  50  80 SW8       29.83S
HUNTINGTON*    CLOUDY    58  51  79 W3        29.81F
PERU/GRISSOM   MOSUNNY   64  53  67 W14       29.80F
MARION*        PTSUNNY   61  49  65 W9G17     29.82F

$$
INZ028>050-202000-
CENTRAL INDIANA

CITY           SKY/WX    TMP DP  RH WIND       PRES   REMARKS
LAFAYETTE      SUNNY     66  48  52 W12G18    29.82F
KOKOMO*        PTSUNNY   63  48  59 W18       29.82S
MUNCIE*        PTSUNNY   59  51  75 SW13G23   29.83F
INDIANAPOLIS   PTSUNNY   63  50  62 W15       29.85F

$$
MIZ043>046-050>051-056>058-064>065-071>073-077>080-202000-
SOUTHWEST LOWER MICHIGAN

CITY           SKY/WX    TMP DP  RH WIND       PRES   REMARKS
BATTLE CREEK   CLOUDY    55  48  77 W9        29.80F
BENTON HARBOR  CLOUDY    55  49  80 W9        29.83R
COLDWATER*     CLOUDY    54  51  92 W3        29.81S
HILLSDALE*     RAIN      52  51  98 W5        29.80F
HOLLAND        CLOUDY    59  50  72 W9        29.81S
GRAND RAPIDS   PTSUNNY   63  51  65 SW6       29.77F
KALAMAZOO      CLOUDY    57  49  74 SW6       29.81S
STURGIS*       CLOUDY    55  50  82 W7        29.80F
THREE RIVERS*  CLOUDY    56  50  78 W7        29.82S

$$
OHZ001>008-015>018-024>025-202000-
NORTHWEST OHIO

CITY           SKY/WX    TMP DP  RH WIND       PRES   REMARKS
WAUSEON*       CLOUDY    54  50  87 W8        29.81R
DEFIANCE       CLOUDY    55  51  86 SW15G21   29.81F
FINDLAY        CLOUDY    54  50  86 SW6       29.83F
TOLEDO EXPRESS CLOUDY    53  50  89 SW6       29.81R
TOLEDO METCALF CLOUDY    54  49  83 SW14G23   29.82S
LIMA           LGT RAIN  54  50  86 SW10      29.84S FOG

$$
AND FOR LAKE MICHIGAN COASTAL AND OPEN LAKE BUOY OBSERVATIONS

STATION/POSITION TEMP    WIND        PRES    VSBY  WAVE
                 AIR SEA DIR/SP/G                  HT/PER
                 (F)     (DEG/KT/KT) (MB)    (MI)  (FT/S)
CALUMET HARBOR    57      10/  8/ 11 1009.3S
MICHIGAN CITY     55     280/ 10/ 11   N/A
SAINT JOSEPH      55                 1010.5F
SOUTH LAKE BUOY   53 55  330/ 16/ 19 1010.6R         2/ 4
SAINT JOSEPH CG                      1010.4      6   2

$$
&&


USA.gov is the U.S. government's official web portal to all federal, state and local government web resources and services.